Wetbulb
59.29 59.40 59.67 59.99 60.33 60.79 61.07 61.21 61.10 61.42 61.84 61.99 61.56 61.85 61.85 62.08 61.15 56.52 53.24 58.78 60.12 62.58 61.00 57.20 56.01 55.38 56.07 54.83 54.61 53.64 43.87 42.66 45.58 44.47 44.95 46.76 44.83 46.83 45.44 43.72 45.49 48.20 45.32 45.36 48.74
58.06 58.10 58.53 58.95 59.29 59.87 60.38 60.55 60.58 60.83 61.31 61.63 61.49 61.57 61.82 61.47 57.82 55.37 61.65 62.94 63.07 62.91 57.50 54.48 53.43 54.29 51.62 52.86 52.09 48.21 45.24 46.03 46.93 46.53 44.95 46.63 46.23 46.25 43.47 43.91 44.64 45.49 47.11 46.86 46.69
57.11 57.07 57.35 57.69 58.31 59.03 59.55 59.85 60.32 60.57 60.88 61.13 61.22 61.38 61.40 60.12 55.47 55.17 63.54 63.28 62.76 61.29 57.42 55.59 54.73 53.92 50.86 52.13 50.63 48.99 44.87 48.28 47.38 48.34 47.74 46.63 45.93 47.47 44.82 43.50 46.15 45.70 47.02 44.79 44.44
56.87 56.62 56.58 56.65 57.24 58.11 58.70 59.00 59.55 60.08 60.30 60.68 60.96 61.16 60.76 59.90 46.75 56.89 61.56 61.41 61.66 59.29 55.63 54.26 53.22 50.60 48.64 48.75 51.53 45.18 49.25 49.65 50.04 48.29 46.61 44.95 46.74 45.75 45.85 46.42 47.95 46.31 46.92 45.41 44.76
57.21 56.61 56.28 56.33 56.67 57.33 57.78 58.15 58.77 59.31 59.78 60.16 60.51 61.03 59.35 53.03 52.55 56.63 59.91 60.09 57.14 55.33 53.34 52.38 50.97 50.83 48.48 49.23 48.93 46.58 47.60 49.29 49.20 47.87 46.56 47.99 45.68 45.15 45.57 47.93 49.39 49.32 47.27 45.52 44.94
57.53 56.91 56.42 56.12 56.45 56.93 57.11 57.51 58.23 58.77 59.24 59.66 60.00 60.08 55.48 46.93 55.70 56.65 54.15 54.60 55.06 53.74 52.17 52.07 50.64 51.20 48.88 48.07 46.50 47.43 47.43 47.36 48.13 47.85 47.73 45.34 44.59 45.10 46.21 48.73 48.45 48.73 45.95 45.51 45.85
57.49 56.83 56.26 56.05 56.18 56.46 56.63 57.05 57.73 58.50 58.78 59.42 59.85 59.39 53.43 50.15 55.62 54.72 53.96 53.54 53.27 53.13 51.78 52.85 52.25 50.45 50.64 47.80 48.32 46.80 42.67 45.40 46.54 46.86 45.49 45.31 41.96 42.93 47.25 47.16 46.31 46.71 46.91 46.43 46.28
57.05 56.43 56.08 56.16 56.29 56.22 56.63 57.22 57.73 58.23 58.73 58.99 59.86 57.67 49.63 55.90 54.69 53.63 53.87 52.25 52.92 52.95 52.86 52.28 51.73 50.80 48.73 48.68 46.65 42.20 42.37 38.32 44.90 46.40 44.79 43.92 37.74 45.39 47.65 46.55 46.18 45.08 44.84 45.99 46.63
56.47 55.96 55.83 56.06 56.16 56.23 56.76 56.82 57.02 58.22 58.65 58.57 56.83 55.09 48.71 55.67 53.10 53.74 53.20 51.62 51.66 51.98 51.37 51.79 51.79 48.25 47.01 41.85 39.89 41.88 36.83 39.37 42.95 46.56 43.75 41.77 38.74 45.09 44.42 43.80 44.02 44.06 44.81 45.75 46.35
56.28 55.71 55.51 55.60 55.97 56.17 56.69 57.09 58.15 56.77 57.50 58.89 55.84 50.25 50.44 49.62 52.66 52.89 51.25 52.36 50.65 50.07 49.35 48.68 47.09 43.18 42.22 40.50 34.29 37.10 37.44 40.40 39.57 42.94 42.60 39.66 39.55 43.62 45.20 44.47 44.27 45.68 46.05 45.96 46.28
56.23 55.83 55.87 55.91 56.26 57.00 55.02 54.29 51.14 51.91 52.54 49.27 50.03 49.63 49.98 51.76 53.26 50.32 50.97 49.78 49.84 47.80 42.57 45.85 40.50 38.53 41.41 43.49 43.86 42.57 40.57 39.26 42.71 44.43 41.39 40.33 41.15 43.06 44.48 44.87 44.58 45.50 46.22 45.63 45.07
56.65 56.27 56.34 56.42 56.73 56.84 54.30 50.00 49.39 49.08 42.77 48.60 49.20 49.77 50.98 52.23 47.99 49.61 50.09 45.39 45.18 41.24 43.71 41.63 38.45 43.88 44.64 43.87 41.53 40.16 38.36 38.65 42.11 43.64 40.16 39.28 39.49 42.68 43.14 44.26 45.57 45.45 45.67 45.20 43.42
56.87 56.41 56.23 56.31 56.45 54.96 52.01 50.03 52.89 52.63 43.52 45.20 47.86 47.30 47.59 49.20 45.67 46.66 46.99 46.08 43.24 41.43 42.19 39.90 42.21 45.19 43.37 41.09 40.51 39.56 37.24 37.97 38.33 40.84 38.81 36.07 35.04 38.16 41.67 44.30 44.66 45.02 45.86 43.78 43.55
57.01 56.40 56.04 55.83 53.04 53.13 50.03 51.53 52.92 52.10 37.66 41.57 43.96 46.82 47.22 47.22 41.84 45.62 47.30 45.56 43.57 40.75 41.77 41.09 44.71 43.40 41.35 40.12 40.83 36.51 41.22 40.16 39.58 35.56 30.87 36.67 30.99 36.52 38.78 40.86 41.53 43.23 44.38 41.60 42.65
56.62 56.34 56.23 55.54 51.30 50.18 50.31 51.83 52.45 48.93 28.09 43.72 41.74 48.71 46.82 43.15 42.31 41.77 43.86 42.55 39.85 39.90 39.97 38.93 38.92 38.46 38.50 40.05 41.87 37.95 38.31 36.76 36.37 34.13 32.32 33.05 30.35 34.23 39.55 37.99 39.94 42.19 44.55 43.14 43.97
56.38 56.11 55.58 54.23 53.41 53.11 52.94 51.76 49.73 36.59 27.20 40.48 42.97 41.34 41.58 42.17 41.29 41.44 41.66 42.68 41.75 39.07 39.47 39.41 40.53 39.46 39.99 38.58 38.93 38.84 36.33 35.52 33.50 31.88 26.16 32.80 33.03 31.07 35.65 38.67 39.64 41.63 43.01 43.04 41.80
56.30 55.97 54.46 55.41 50.94 52.88 51.77 48.73 36.01 29.61 42.02 40.02 39.88 41.40 40.59 40.13 40.20 38.49 37.07 35.06 34.59 31.50 32.72 37.16 37.86 38.27 39.77 36.71 36.70 36.16 33.57 25.41 24.35 23.16 27.34 35.04 31.10 36.83 39.02 40.13 41.19 41.32 41.99 41.94 41.92
56.43 56.00 54.63 54.68 52.66 52.20 48.52 41.63 29.83 40.25 39.66 42.51 40.73 40.97 38.42 40.76 40.10 38.75 37.39 34.51 37.34 36.28 34.20 32.77 32.36 37.16 38.67 38.70 37.08 33.74 35.23 27.40 20.19 24.95 29.96 28.36 27.74 35.07 41.72 43.26 42.53 42.73 42.10 42.26 41.00
56.51 55.25 53.60 54.28 51.88 51.36 43.69 31.79 35.97 42.84 45.70 43.96 43.48 37.22 37.51 39.27 39.57 38.71 36.30 37.34 39.42 38.79 34.30 33.28 34.28 36.10 37.88 38.29 39.77 34.82 30.89 36.78 28.77 23.23 24.21 32.28 35.27 39.42 41.26 41.37 40.93 40.36 39.94 39.74 40.04
54.22 52.94 51.82 54.66 51.79 48.12 37.92 34.66 38.49 47.33 46.89 44.51 38.02 39.85 36.66 38.44 36.38 36.71 37.00 39.34 39.27 40.92 42.01 37.22 33.28 37.44 34.44 34.83 35.11 34.21 36.23 28.75 29.48 18.68 17.10 29.76 30.67 34.70 38.99 41.13 39.55 38.16 38.53 39.37 39.91
52.88 48.35 52.01 52.47 50.95 43.45 33.10 34.87 41.45 46.72 47.39 43.41 41.84 38.93 38.28 37.28 39.29 37.78 37.40 40.23 40.63 40.62 41.74 37.20 36.18 33.59 33.18 30.78 32.93 29.80 30.19 32.02 33.07 30.73 23.07 24.47 31.25 36.49 37.81 38.83 39.18 39.00 39.42 40.18 40.60
50.89 43.14 49.75 51.49 40.52 40.12 36.43 39.53 43.29 43.40 46.80 43.19 40.33 39.04 36.99 37.25 36.06 37.01 36.92 40.69 42.37 41.13 37.29 39.58 36.31 30.19 34.08 37.57 35.00 35.90 34.67 35.37 29.91 28.04 27.15 30.55 31.75 40.69 38.71 39.13 39.26 39.44 41.21 41.26 41.65
46.43 46.51 49.16 49.81 38.51 37.79 39.98 40.55 42.37 42.19 42.50 42.75 42.16 42.00 42.76 39.38 35.13 36.52 38.11 42.23 42.56 40.92 35.82 38.28 32.19 27.24 28.87 35.01 32.96 31.31 34.07 35.99 35.80 33.60 30.31 26.84 30.58 41.37 42.48 41.62 39.73 38.70 39.25 40.71 41.41
44.99 39.77 42.30 43.67 43.88 41.05 39.55 38.16 38.24 43.45 42.38 43.14 42.20 43.03 40.38 37.63 39.57 37.05 37.30 40.60 42.55 41.52 42.02 40.97 34.11 31.16 27.45 31.45 35.53 31.38 32.12 32.73 33.86 29.55 29.98 30.49 32.74 37.91 40.20 40.93 42.18 42.66 42.67 39.98 40.20
42.93 39.98 41.97 35.80 37.66 39.80 40.66 39.09 37.67 37.42 42.53 43.75 40.34 40.67 39.47 35.84 36.86 36.41 37.97 38.83 39.96 41.50 39.63 39.11 31.02 31.73 33.67 35.21 34.32 32.95 33.36 34.18 32.58 32.71 28.74 32.55 33.42 37.38 39.88 40.69 41.76 42.97 41.54 41.53 40.81
37.89 39.36 40.55 39.79 40.98 39.56 38.74 36.60 36.94 39.06 39.99 39.03 38.73 40.39 40.00 37.13 38.17 36.78 37.60 38.60 37.87 37.77 37.83 38.80 32.28 32.00 29.94 32.55 32.44 30.30 33.16 33.84 33.36 33.99 34.45 34.69 33.41 39.96 41.10 41.86 41.46 41.60 42.17 41.66 41.79
42.15 42.02 37.35 34.77 35.78 35.57 35.83 36.51 37.00 39.19 39.93 41.13 40.98 39.74 38.66 40.38 42.77 43.33 43.67 43.15 41.88 39.19 35.93 33.70 32.14 30.31 27.24 31.85 30.84 27.27 31.52 33.17 34.27 36.30 35.41 31.23 36.73 41.22 40.36 40.81 41.61 42.52 43.09 43.06 42.38
MSLP
1018.99 1018.79 1018.56 1018.23 1017.91 1017.57 1017.20 1016.85 1016.58 1016.32 1016.03 1015.75 1015.43 1015.13 1014.90 1014.69 1014.38 1014.27 1013.38 1012.57 1012.66 1012.90 1013.06 1012.76 1012.84 1012.77 1012.74 1012.46 1012.59 1012.45 1012.17 1010.92 1009.87 1009.29 1009.34 1009.71 1010.15 1010.49 1010.72 1011.10 1011.25 1011.67 1012.21 1013.22 1013.90
1019.27 1019.09 1018.81 1018.50 1018.11 1017.77 1017.43 1017.07 1016.73 1016.35 1016.10 1015.79 1015.40 1015.04 1014.77 1014.64 1014.23 1013.29 1012.04 1012.15 1012.63 1013.05 1013.13 1012.76 1012.44 1012.52 1012.55 1012.19 1012.39 1012.38 1011.57 1010.41 1009.54 1009.35 1009.44 1009.60 1010.11 1010.45 1011.04 1011.10 1011.09 1011.44 1012.19 1013.15 1014.04
1019.49 1019.25 1018.99 1018.69 1018.32 1017.88 1017.51 1017.21 1016.83 1016.48 1016.08 1015.70 1015.41 1015.05 1014.73 1014.58 1014.11 1012.41 1012.32 1012.18 1012.63 1012.98 1012.94 1012.61 1012.31 1012.28 1012.27 1011.82 1011.85 1011.51 1011.12 1009.97 1009.65 1009.55 1009.72 1009.98 1010.03 1010.18 1010.56 1010.62 1010.51 1010.59 1011.42 1012.45 1013.48
1019.73 1019.42 1019.14 1018.79 1018.45 1018.07 1017.65 1017.16 1016.77 1016.37 1016.03 1015.68 1015.37 1015.00 1014.68 1014.43 1013.92 1012.63 1012.54 1012.53 1012.73 1012.66 1012.71 1012.44 1012.36 1012.30 1012.02 1011.65 1011.23 1011.52 1010.68 1010.24 1009.88 1009.94 1010.29 1010.33 1010.10 1010.16 1010.16 1009.67 1009.49 1009.81 1010.23 1011.50 1012.49
1019.80 1019.56 1019.27 1018.90 1018.45 1018.03 1017.64 1017.21 1016.73 1016.28 1015.85 1015.44 1015.19 1014.92 1014.68 1014.17 1012.86 1012.64 1012.67 1012.70 1012.62 1012.67 1012.57 1012.43 1012.26 1012.12 1011.85 1011.25 1011.26 1011.40 1010.79 1010.39 1009.95 1010.24 1010.62 1010.66 1010.38 1010.53 1009.49 1009.17 1009.11 1009.37 1009.84 1010.86 1011.51
1019.83 1019.54 1019.31 1018.96 1018.49 1017.95 1017.44 1017.04 1016.60 1016.10 1015.69 1015.26 1015.04 1014.97 1014.66 1013.51 1012.06 1012.24 1012.44 1012.69 1012.44 1012.56 1012.29 1012.30 1012.01 1011.92 1011.93 1011.57 1011.56 1011.40 1011.18 1010.74 1010.33 1010.29 1010.53 1010.85 1010.60 1010.64 1008.47 1008.32 1008.67 1008.92 1009.29 1009.77 1010.44
1019.74 1019.55 1019.28 1018.97 1018.53 1018.00 1017.39 1016.79 1016.31 1015.88 1015.36 1014.96 1014.80 1014.59 1013.77 1012.25 1011.59 1011.99 1012.24 1012.33 1012.46 1012.40 1012.30 1012.15 1012.33 1012.40 1012.01 1011.76 1011.76 1011.67 1011.68 1010.78 1009.83 1009.77 1010.35 1010.59 1010.56 1009.53 1007.84 1008.15 1008.26 1008.43 1008.48 1008.78 1009.12
1019.57 1019.46 1019.18 1018.88 1018.41 1017.92 1017.34 1016.55 1015.89 1015.47 1015.13 1014.63 1014.56 1014.28 1013.21 1012.01 1011.84 1011.98 1012.22 1012.53 1012.57 1012.50 1012.49 1012.47 1012.54 1012.48 1012.38 1012.28 1011.88 1011.88 1011.56 1010.57 1008.79 1008.67 1010.37 1010.86 1009.39 1008.02 1007.48 1007.62 1007.67 1007.71 1008.08 1008.18 1008.29
1019.10 1019.22 1019.00 1018.70 1018.23 1017.59 1016.96 1016.07 1015.24 1014.91 1014.70 1014.49 1014.49 1013.91 1012.72 1012.25 1012.11 1011.77 1011.76 1012.00 1012.44 1012.60 1012.68 1012.70 1012.67 1012.48 1012.47 1012.57 1012.17 1011.31 1010.90 1009.90 1008.76 1008.37 1009.73 1010.52 1008.91 1007.45 1006.76 1006.88 1007.27 1007.34 1007.29 1007.19 1006.91
1018.90 1018.80 1018.67 1018.41 1017.93 1017.26 1016.42 1015.00 1014.40 1014.58 1014.57 1014.13 1013.41 1013.60 1012.19 1011.73 1011.83 1012.00 1012.12 1012.07 1012.23 1012.55 1012.74 1012.77 1012.63 1012.41 1012.22 1012.21 1011.56 1010.48 1010.33 1009.47 1008.81 1008.86 1009.34 1009.69 1008.65 1007.57 1007.00 1007.06 1006.93 1006.51 1006.14 1005.96 1005.88
1018.73 1018.57 1018.38 1018.04 1017.70 1017.29 1016.29 1014.57 1014.77 1014.83 1013.68 1012.33 1011.69 1010.95 1010.89 1011.74 1012.03 1012.04 1012.09 1012.33 1012.25 1012.45 1012.36 1011.97 1012.15 1011.23 1010.26 1010.57 1010.03 1009.89 1009.68 1009.18 1007.64 1007.77 1008.78 1008.42 1007.91 1007.35 1006.84 1006.29 1006.02 1005.58 1004.89 1004.82 1004.74
1018.41 1018.34 1018.17 1018.02 1017.56 1017.18 1016.97 1016.06 1016.91 1017.24 1014.41 1011.55 1011.09 1010.90 1010.68 1010.83 1011.68 1011.68 1011.76 1012.24 1012.26 1011.91 1011.95 1011.86 1010.81 1009.64 1010.05 1009.75 1009.76 1009.68 1009.52 1008.70 1007.74 1007.45 1008.22 1007.98 1007.52 1006.78 1006.60 1005.69 1004.87 1004.64 1004.20 1003.87 1004.17
1018.14 1018.14 1017.96 1017.87 1017.43 1016.83 1016.80 1016.80 1016.69 1016.49 1015.22 1011.47 1010.21 1010.16 1010.67 1011.00 1010.70 1010.47 1011.14 1011.23 1011.16 1011.35 1011.07 1009.95 1009.01 1009.39 1009.73 1009.65 1009.90 1009.33 1009.54 1008.91 1008.44 1008.15 1008.34 1007.99 1007.21 1006.44 1005.43 1004.67 1004.28 1003.62 1002.79 1003.26 1003.69
1017.93 1017.85 1017.81 1017.65 1017.81 1016.86 1016.93 1017.29 1016.83 1016.49 1014.61 1010.81 1010.14 1010.27 1010.60 1010.72 1011.04 1011.09 1010.93 1011.14 1010.83 1010.05 1010.44 1009.31 1008.85 1008.92 1009.37 1009.28 1010.03 1008.83 1009.08 1008.86 1008.89 1009.18 1008.83 1007.98 1004.84 1005.04 1004.51 1004.07 1003.85 1002.86 1002.09 1002.55 1003.02
1017.65 1017.61 1017.93 1017.71 1018.04 1017.18 1017.55 1017.21 1017.08 1016.43 1013.37 1010.28 1010.59 1011.24 1011.09 1011.34 1011.59 1011.90 1012.02 1011.66 1010.70 1010.37 1010.06 1008.35 1008.53 1008.78 1009.01 1008.76 1009.47 1009.28 1009.22 1009.39 1009.49 1009.55 1009.16 1008.59 1007.65 1003.48 1003.31 1003.29 1002.71 1002.21 1001.50 1001.68 1002.24
1017.29 1017.37 1017.86 1017.66 1017.61 1017.34 1017.22 1017.27 1017.01 1016.27 1011.47 1010.00 1010.35 1010.56 1010.94 1011.02 1011.42 1011.76 1011.97 1011.84 1011.20 1010.73 1010.03 1008.85 1009.01 1009.09 1008.78 1009.19 1009.31 1009.64 1009.91 1010.13 1010.24 1010.23 1008.38 1007.75 1007.03 1002.09 1002.32 1001.66 1001.27 1001.10 1000.81 1000.93 1001.83
1016.62 1016.81 1017.56 1017.02 1017.34 1017.30 1017.39 1017.41 1016.98 1013.56 1009.65 1008.84 1009.06 1009.66 1009.97 1010.19 1010.60 1011.22 1011.32 1011.33 1010.81 1010.63 1009.51 1008.38 1008.41 1008.68 1008.94 1009.58 1010.12 1010.09 1010.55 1010.95 1010.92 1010.49 1006.39 1005.79 1004.64 1001.18 1000.66 1000.32 1000.19 1000.30 1000.04 1000.25 1001.33
1015.98 1016.18 1016.44 1016.76 1017.02 1017.51 1017.83 1018.37 1015.64 1010.00 1009.15 1008.18 1008.38 1008.70 1009.17 1009.11 1009.18 1009.98 1010.19 1010.01 1009.42 1008.99 1008.51 1008.10 1007.49 1008.10 1008.20 1008.23 1008.08 1009.31 1009.68 1010.32 1010.02 1009.13 1005.97 1005.45 1001.85 999.74 999.18 998.66 998.35 998.54 999.07 1000.03 1001.12
1015.49 1015.89 1016.06 1016.13 1016.92 1017.53 1018.49 1017.82 1012.55 1010.47 1009.21 1008.55 1008.15 1007.94 1008.21 1008.12 1008.42 1008.66 1008.75 1007.66 1007.17 1007.40 1007.42 1006.66 1006.06 1006.81 1007.24 1007.70 1007.95 1008.21 1008.54 1007.98 1008.83 1008.41 1007.83 1002.98 1000.66 998.60 998.05 998.00 998.01 998.14 999.06 1000.20 1001.14
1014.94 1015.46 1015.08 1015.28 1016.35 1017.36 1017.68 1015.60 1012.30 1011.12 1009.93 1009.05 1008.49 1008.16 1007.19 1007.45 1008.14 1007.79 1007.31 1005.87 1006.06 1005.99 1005.83 1005.28 1005.84 1005.64 1007.33 1007.76 1007.78 1007.79 1007.77 1007.96 1008.38 1008.65 1006.98 1002.62 1001.25 998.53 998.59 997.73 997.56 998.67 999.20 999.84 1000.57
1015.03 1014.58 1013.98 1014.42 1016.27 1017.13 1015.79 1013.97 1011.69 1010.67 1009.89 1010.03 1009.39 1009.11 1008.51 1007.81 1007.57 1007.19 1006.04 1005.01 1005.06 1005.04 1005.62 1005.79 1006.48 1006.00 1007.34 1007.09 1006.62 1007.66 1007.55 1007.49 1007.01 1006.82 1005.41 1003.99 999.26 996.90 997.36 997.12 997.52 998.25 999.07 999.76 1000.21
1014.80 1014.78 1014.52 1014.61 1015.73 1015.24 1014.06 1012.60 1011.61 1009.76 1010.19 1010.10 1010.03 1010.03 1010.05 1009.49 1008.66 1008.65 1007.07 1005.48 1006.25 1005.14 1005.92 1006.21 1006.72 1007.13 1006.02 1005.42 1005.64 1005.64 1005.57 1005.87 1005.51 1004.76 1004.01 1002.73 998.79 998.00 997.49 997.29 997.65 998.14 998.57 998.74 999.10
1014.85 1014.30 1014.64 1014.21 1013.37 1013.42 1012.67 1011.83 1011.60 1010.09 1009.53 1009.31 1009.36 1009.34 1009.36 1009.31 1009.26 1008.76 1007.40 1006.05 1006.40 1007.03 1008.35 1008.64 1007.65 1007.55 1006.58 1006.36 1006.18 1006.21 1005.25 1005.10 1004.39 1003.89 1003.30 1001.57 999.17 998.15 997.29 997.77 997.43 997.77 998.19 998.46 998.86
1014.94 1014.36 1014.26 1013.89 1012.65 1012.39 1012.03 1011.41 1011.05 1009.78 1009.49 1009.02 1008.83 1009.15 1009.33 1008.87 1008.65 1007.27 1007.31 1006.73 1006.14 1005.72 1006.69 1008.13 1009.60 1009.72 1008.41 1006.98 1006.92 1006.33 1005.32 1004.93 1004.60 1004.08 1002.64 1001.13 999.79 998.33 997.25 997.01 996.57 996.58 997.16 997.72 998.03
1014.90 1013.01 1012.14 1012.82 1012.57 1011.81 1011.52 1010.75 1010.16 1009.21 1008.48 1008.10 1007.67 1008.00 1008.33 1008.00 1007.84 1007.05 1006.98 1006.24 1006.27 1006.37 1007.34 1008.09 1008.02 1008.73 1008.05 1007.62 1006.47 1005.94 1005.29 1004.90 1004.50 1003.69 1002.73 1000.76 999.27 998.55 996.77 996.52 996.00 995.45 995.97 996.63 997.14
1014.82 1013.18 1012.85 1012.47 1011.92 1011.79 1011.32 1010.54 1009.55 1008.91 1009.11 1007.62 1006.75 1007.07 1007.03 1006.51 1006.28 1005.42 1005.64 1005.56 1005.32 1005.46 1006.45 1007.16 1006.63 1007.37 1007.11 1006.81 1006.32 1005.07 1004.23 1003.84 1002.34 1001.91 1001.11 999.88 998.96 996.53 996.33 995.84 994.77 994.56 994.52 995.52 995.93
1014.48 1014.31 1014.37 1012.75 1012.45 1012.27 1010.89 1010.40 1009.83 1010.01 1009.37 1008.92 1008.00 1006.96 1006.19 1005.59 1005.41 1004.48 1004.39 1003.99 1004.47 1004.99 1006.17 1006.37 1006.03 1006.06 1004.92 1004.95 1004.78 1003.82 1003.04 1001.34 1001.04 999.86 998.83 998.25 995.83 994.96 994.96 994.58 993.53 993.08 993.88 994.31 994.32
Wind_Speed
16 16 17 17 17 17 17 18 18 16 14 13 13 11 9 8 7 4 7 2 6 7 0 5 5 6 5 4 3 2 3 6 8 0 1 5 4 6 2 2 3 7 2 4 13
14 15 16 16 16 17 17 17 18 17 15 14 14 12 9 8 5 10 5 11 10 7 3 6 6 6 4 4 3 3 3 5 2 6 4 2 7 5 3 6 6 5 7 8 11
14 15 15 16 17 17 17 17 16 16 16 14 13 12 9 6 5 1 4 11 8 6 5 6 6 5 7 4 5 6 5 4 3 3 5 5 6 6 6 8 10 13 12 15 11
14 15 15 16 16 17 17 17 16 16 17 16 14 12 9 4 5 3 5 7 6 5 4 3 4 3 6 7 8 4 10 11 4 2 1 4 4 6 10 15 1 2 2 15 18
12 13 15 16 17 17 18 18 17 17 17 16 14 11 5 5 6 5 6 5 5 4 4 6 7 8 7 6 0 9 10 9 7 5 5 8 11 8 13 11 13 11 5 12 14
11 12 14 17 18 19 19 19 19 17 16 17 14 8 4 7 4 8 5 3 4 5 5 5 5 6 5 7 6 6 8 11 8 9 7 7 7 5 10 14 15 11 12 12 14
9 10 13 16 19 21 22 22 21 19 17 15 8 3 5 12 5 6 6 2 1 3 6 2 5 3 6 7 8 4 8 10 13 11 7 3 11 15 21 7 9 10 11 13 15
8 10 12 15 17 21 23 23 22 21 18 8 3 4 8 3 5 5 6 4 2 1 2 3 2 3 3 4 5 4 5 5 6 10 7 10 14 10 16 12 16 11 10 10 12
6 9 13 15 17 18 21 26 25 19 7 3 4 4 7 1 3 4 6 4 5 3 2 2 2 3 5 3 6 9 7 9 10 10 8 10 9 11 1 2 9 10 12 13 12
7 8 11 15 17 18 22 26 9 3 4 5 5 1 6 3 4 3 2 5 3 5 3 4 4 4 4 6 8 7 7 11 13 7 7 8 18 13 13 9 13 16 15 14 15
9 9 10 12 15 17 13 7 3 3 5 9 7 5 6 5 1 5 5 5 3 4 7 7 6 13 15 17 17 15 16 17 22 11 10 16 19 16 11 14 15 17 19 13 13
9 9 11 12 14 15 8 4 5 4 10 11 13 8 2 7 4 8 8 9 7 10 7 4 13 21 9 12 6 9 13 21 18 11 7 10 14 14 10 17 22 19 20 15 7
10 9 10 12 13 10 5 4 4 8 7 7 10 7 3 7 8 10 16 7 8 8 14 20 10 14 7 7 9 12 11 15 16 9 7 6 8 12 9 17 16 18 21 9 10
10 9 7 13 5 6 2 7 4 4 5 8 7 3 4 5 6 4 2 4 7 13 13 17 18 20 15 18 11 21 9 9 11 6 7 4 17 9 6 13 11 16 19 9 11
10 8 3 3 6 5 4 5 6 3 10 2 2 3 4 3 2 3 3 1 10 6 5 8 4 6 9 12 10 6 2 2 4 6 6 5 12 6 10 9 12 13 17 8 10
10 8 5 4 4 2 2 4 2 3 11 3 5 4 3 4 1 2 2 2 1 3 7 15 4 3 4 3 2 3 1 4 3 2 11 11 13 3 7 9 7 10 14 11 9
12 11 9 2 1 3 1 2 3 11 3 6 6 7 5 7 7 8 7 7 7 4 8 6 17 2 4 4 2 4 3 4 5 1 18 10 12 15 5 8 12 13 14 9 11
13 13 10 8 7 5 4 2 12 8 18 2 4 7 7 9 8 8 5 6 14 6 3 3 10 15 9 13 9 10 9 8 8 11 22 2 11 9 11 12 11 15 11 9 10
10 2 2 7 8 7 5 4 14 6 8 12 15 6 7 8 7 9 10 9 8 20 12 8 13 3 6 3 10 7 7 4 1 2 4 12 15 12 11 11 10 10 8 9 9
3 3 4 12 13 6 4 11 14 8 10 7 14 9 15 13 11 9 9 5 7 14 13 5 12 9 4 3 3 4 1 3 2 2 8 19 15 17 13 19 8 6 7 7 9
2 3 3 16 5 3 6 13 14 14 16 12 15 18 19 16 15 11 11 10 5 5 15 3 5 8 7 9 12 3 5 5 1 6 7 10 19 4 6 5 9 8 5 6 9
2 4 6 12 5 5 10 8 12 20 13 5 2 9 13 11 16 25 26 20 19 2 10 9 2 6 16 8 2 6 11 13 12 17 5 12 27 5 5 9 11 8 8 7 8
4 2 5 4 9 9 5 19 18 18 17 6 12 13 15 16 10 12 15 12 6 6 5 11 4 2 9 15 2 5 6 11 11 11 18 19 23 9 21 18 9 7 7 9 10
4 4 3 4 3 9 14 12 18 15 21 21 19 15 14 17 18 10 12 14 15 9 16 9 3 10 14 17 15 13 12 11 13 11 20 21 25 31 30 27 25 21 15 10 10
4 6 7 4 7 16 14 6 18 21 22 15 9 26 23 17 20 22 21 28 17 15 4 7 12 19 24 25 25 23 24 25 23 19 22 25 29 28 32 24 24 22 13 14 12
4 3 5 4 10 14 16 18 28 27 23 21 27 23 20 25 27 28 20 20 20 3 13 11 11 14 25 32 32 30 29 25 32 31 32 34 30 35 29 26 33 28 28 19 17
2 3 1 8 11 8 13 14 7 13 16 23 27 26 25 26 22 27 26 25 19 10 7 7 8 9 19 23 27 26 34 38 35 32 30 31 38 38 34 33 34 33 24 24 16
Wind_Direction
18 16 12 9 5 2 1 358 357 355 355 352 350 341 329 324 306 198 247 161 146 139 230 144 209 211 236 234 221 235 272 265 272 330 311 113 217 157 117 255 208 183 354 105 133
14 9 5 2 360 356 354 352 349 348 347 346 344 338 333 333 259 259 166 125 127 147 218 205 202 179 238 213 202 227 237 263 34 336 292 181 198 222 184 224 242 202 129 126 142
7 5 0 356 351 349 348 345 343 341 339 338 338 332 326 319 274 238 52 120 136 168 276 310 302 205 232 230 202 226 232 291 298 311 338 277 275 209 241 251 226 214 204 168 165
357 358 355 351 346 342 340 338 336 335 333 331 333 327 322 240 275 72 106 114 149 218 251 223 245 217 223 223 224 271 242 249 289 118 258 238 255 263 222 229 265 14 342 165 179
346 347 346 344 342 338 335 331 328 327 326 324 328 325 284 227 253 134 127 128 162 174 232 236 247 244 257 297 100 236 262 280 264 201 230 281 261 248 255 247 236 240 172 175 192
336 339 339 337 334 332 329 325 320 317 317 315 319 320 244 245 114 142 134 149 233 218 204 226 268 354 298 262 266 2 309 293 279 231 216 225 263 230 240 232 242 243 203 202 198
328 335 335 333 331 329 325 320 313 309 307 306 299 253 258 245 133 141 171 119 54 288 250 196 320 257 344 271 353 287 304 277 250 222 235 168 279 231 246 255 236 240 231 210 212
331 332 331 326 325 325 321 314 306 304 301 285 248 230 254 360 97 161 151 128 154 96 338 38 253 261 229 354 259 233 239 281 268 200 160 134 260 233 246 221 235 222 242 237 221
315 331 327 322 319 318 316 308 299 292 254 212 191 232 256 158 199 164 193 176 132 130 62 182 249 243 125 214 285 225 249 236 273 180 132 178 256 265 273 315 267 229 230 234 234
303 311 317 317 308 312 317 299 277 302 239 214 268 262 168 193 135 170 52 154 174 146 168 198 210 223 198 196 228 254 247 283 277 200 198 206 251 263 281 256 256 264 255 243 239
295 300 300 297 305 315 334 339 264 213 225 209 188 231 150 87 146 198 190 158 193 224 201 192 180 218 214 216 234 254 263 261 271 265 186 230 246 252 248 272 262 261 265 255 251
273 289 300 310 312 310 296 318 68 319 298 246 251 254 159 168 204 194 164 176 176 213 207 210 219 236 258 261 258 275 276 271 275 287 177 259 260 263 254 258 259 263 266 267 240
261 279 306 314 314 298 323 30 342 336 255 234 217 206 206 160 228 204 169 189 192 209 212 226 204 216 224 240 261 237 243 262 265 282 217 272 259 251 243 252 264 264 257 238 216
253 263 305 316 289 339 48 340 334 310 269 223 200 198 147 176 263 7 263 198 232 222 216 253 237 244 248 256 227 268 239 263 271 270 243 90 288 223 239 265 237 253 267 225 214
241 250 277 55 307 318 6 338 315 255 280 298 135 349 18 204 105 31 356 41 242 204 180 220 175 197 232 234 185 256 71 297 286 268 314 217 276 241 186 241 237 246 259 247 225
229 223 160 215 214 45 358 312 254 246 245 213 131 179 170 190 131 122 196 261 41 286 243 256 122 225 216 87 116 129 305 247 249 229 255 201 217 180 185 210 219 232 251 243 162
219 193 176 201 328 94 15 260 245 228 196 183 205 179 215 181 191 191 173 187 191 170 219 225 231 153 144 152 180 174 156 298 308 286 262 184 238 248 223 182 196 218 239 213 162
230 191 209 202 129 84 30 342 228 210 216 100 187 173 210 179 222 191 214 235 223 234 294 245 272 175 182 212 176 180 175 172 223 256 278 125 253 251 222 229 214 209 232 154 160
252 224 192 189 143 109 103 194 241 287 273 283 294 259 218 216 233 169 217 238 213 187 201 194 251 44 159 196 161 183 197 211 251 46 317 265 280 280 231 233 233 210 157 167 173
155 202 201 164 140 123 122 221 247 274 324 302 263 277 271 233 198 188 206 206 229 190 218 249 262 178 153 72 278 187 259 120 239 222 239 279 286 268 269 259 224 158 204 209 197
169 220 159 137 126 171 206 224 249 245 239 257 276 285 288 291 291 262 243 249 277 241 197 266 231 253 121 200 185 166 233 226 231 185 216 264 269 278 144 155 167 205 203 208 194
199 245 144 150 158 191 222 209 227 254 248 248 192 231 258 297 293 286 290 286 358 185 170 205 198 258 241 225 262 232 214 201 217 239 238 234 261 198 328 133 130 152 184 212 198
243 237 186 190 226 219 259 235 237 263 248 227 228 211 233 254 257 252 269 275 330 35 54 353 303 269 282 298 4 229 240 251 255 253 245 243 253 239 268 268 247 210 219 212 218
287 247 182 235 227 232 235 236 244 239 253 251 259 259 247 251 240 246 244 261 255 210 147 89 284 273 259 261 288 285 257 241 239 254 258 255 271 277 270 273 283 281 280 238 221
231 238 171 197 247 246 240 200 240 248 236 240 224 228 235 245 251 246 242 256 259 265 230 167 227 223 238 245 260 262 259 273 272 256 251 269 267 264 270 276 268 272 273 269 281
271 309 5 288 267 250 236 252 253 259 248 241 235 241 234 235 236 250 224 236 242 276 203 189 227 214 235 241 251 260 265 260 252 255 255 252 258 261 258 267 271 272 269 282 264
295 51 348 264 264 269 250 265 263 271 271 280 280 275 269 257 249 245 252 263 267 229 210 200 201 205 242 236 243 248 242 249 256 250 243 250 249 254 261 254 256 266 284 277 268